Flag for Germany Weather past 2 weeks in Amberg, Bavaria, Germany

28 °F

Ice fog.

Feels Like: 28 °F
Forecast: 32 / 45 °F
Wind: No wind

Location: Hohenfels

Current Time: Nov 28, 2015 at 3:48:48 AM

Latest Report: Nov 28, 2015 at 2:58 AM

Visibility: 5 mi

Pressure: 29.97 "Hg

Humidity: 100%

Dew point: 28 °F

Location of AmbergLocation

Historic Weather in Amberg — Graph


Amberg temperature yesterday

Maximum temperature yesterday: 37 °F (at 2:58 PM)
Minimum temperature yesterday: 25 °F (at 6:59 AM)
Average temperature yesterday: 29 °F

Past Weeks' High & Low Weather Summary

High61 °F (Nov 16, 1:58 PM)100% (Nov 13, 2:58 AM)30.42 "Hg (Nov 13, 2:58 AM)
Low25 °F (Nov 27, 6:59 AM)48% (Nov 16, 2:58 PM)29.42 "Hg (Nov 21, 4:02 PM)
Average41 °F86%30.00 "Hg
* Reported Nov 13 2:03 AM — Nov 28 2:58 AM, Amberg, Weather by CustomWeather, © 2015

Note: Actual official high and low records may vary slightly from our data, if they occured in-between our weather recording intervals... More about our weather records


Amberg weather history for previous 24 hours

Time TempWeatherWind HumidityBarometerVisibility
2:58 AM
Sat, Nov 28
28 °FIce fog.No wind100%29.97 "Hg5 mi
2:02 AM28 °FIce fog.2 mph100%29.92 "Hg5 mi
12:58 AM32 °FOvercast.1 mph93%30.00 "HgN/A
11:58 PM
Fri, Nov 27
30 °FLow clouds.3 mph100%30.01 "HgN/A
10:58 PM30 °FIce fog.2 mph100%30.03 "Hg6 mi
9:58 PM28 °FIce fog.2 mph100%30.04 "Hg2 mi
9:02 PM28 °FIce fog.No wind100%29.97 "Hg1 mi
8:58 PM28 °FIce fog.No wind100%30.06 "Hg1 mi
8:00 PM27 °FIce fog.No wind100%29.98 "Hg1 mi
7:58 PM27 °FIce fog.2 mph100%30.08 "Hg0 mi
7:03 PM27 °FIce fog.2 mph100%29.99 "Hg1 mi
6:58 PM27 °FIce fog.2 mph100%30.09 "Hg3 mi
5:58 PM28 °FClear.2 mph100%30.09 "HgN/A
4:58 PM30 °FClear.2 mph100%30.10 "HgN/A
3:58 PM32 °FSunny.No wind100%30.09 "HgN/A
2:58 PM37 °FSunny.2 mph81%30.09 "HgN/A
1:58 PM36 °FSunny.2 mph100%30.11 "HgN/A
12:58 PM34 °FPassing clouds.2 mph100%30.14 "HgN/A
11:58 AM32 °FIce fog.2 mph100%30.16 "Hg6 mi
11:01 AM32 °FIce fog.No wind100%30.10 "Hg3 mi
10:58 AM32 °FIce fog.1 mph100%30.17 "Hg2 mi
9:58 AM30 °FLow clouds.2 mph100%30.18 "HgN/A
8:58 AM28 °FPartly sunny.No wind100%30.19 "HgN/A
7:58 AM27 °FOvercast.1 mph100%30.20 "HgN/A
7:03 AM25 °FIce fog.No wind100%30.12 "Hg2 mi
7:00 AM25 °FIce fog.No wind100%30.12 "Hg1 mi
6:59 AM25 °FIce fog.No wind100%30.12 "Hg1 mi
6:02 AM27 °FIce fog.1 mph100%30.12 "Hg3 mi
5:58 AM28 °FChilly.N/A93%30.20 "HgN/A
5:03 AM27 °FIce fog.2 mph100%30.12 "Hg1 mi
3:59 AM28 °FIce fog.2 mph100%30.13 "Hg2 mi
Weather by CustomWeather, © 2015

See weather overviewHow to use our weather pages